Wind_Speed
17 15 15 12 11 10 9 9 7 5 4 2 2 2 2 2 2 2 2 3 4 4 5 6 7 6 7 7 8 8 9 10 11 12 13 14 15 16 17 18 19 21 22
21 15 14 13 12 11 10 9 6 5 3 2 2 2 2 2 2 2 3 4 4 4 5 7 7 7 8 8 8 8 9 10 11 12 13 14 15 15 16 17 19 21 22
21 19 16 14 13 12 12 9 8 7 5 4 4 3 3 3 3 3 3 4 4 4 5 6 6 7 8 8 9 9 8 9 10 12 13 14 15 15 16 18 20 22 23
22 20 18 17 14 13 12 11 10 9 7 6 5 4 5 4 3 4 3 3 3 4 5 5 6 7 8 8 9 9 9 9 10 12 13 14 15 17 18 20 21 22 23
23 20 18 17 16 14 12 11 11 10 9 8 7 5 5 4 3 4 4 4 3 4 5 5 6 7 7 8 8 9 11 11 12 13 14 15 17 17 19 21 21 22 23
24 21 18 17 16 15 13 12 11 11 11 10 9 7 6 5 4 4 4 4 3 3 4 5 6 7 7 8 9 11 12 13 13 14 15 16 18 18 21 21 21 23 24
27 23 20 18 16 15 14 12 12 13 13 11 10 8 7 5 4 4 4 3 3 3 4 5 7 8 9 10 10 11 13 13 14 16 17 18 19 20 21 21 22 24 25
29 26 22 20 17 16 16 14 14 14 14 13 12 10 8 6 5 5 4 4 3 3 4 6 7 8 9 10 11 12 14 15 16 18 19 20 21 21 22 22 24 25 25
29 27 23 22 20 18 17 16 15 15 15 14 12 11 9 7 7 6 5 5 4 4 5 6 8 9 9 11 12 12 14 16 18 19 20 22 24 24 23 24 25 27 27
32 28 26 24 22 21 19 18 16 17 16 15 14 12 11 9 8 6 6 6 6 6 7 8 9 10 10 10 12 14 16 18 20 22 23 25 26 26 26 26 26 27 27
31 30 28 26 24 22 23 21 19 18 19 16 15 13 12 10 9 8 7 7 7 8 9 9 10 11 11 13 14 16 17 20 21 23 25 27 29 29 28 28 28 28 28
32 32 29 29 26 23 25 24 22 21 20 18 17 15 13 12 12 11 10 9 9 9 10 12 13 13 14 14 15 17 19 21 22 24 26 28 30 30 29 29 30 29 29
36 34 31 31 27 25 26 26 25 24 22 22 20 17 15 15 14 13 13 12 11 12 12 13 14 15 15 16 17 19 21 23 23 25 26 29 31 31 31 32 31 30 30
30 31 33 32 28 24 23 26 27 26 25 24 22 20 18 17 17 16 15 14 13 13 13 14 15 16 17 18 19 20 23 24 24 26 27 31 33 33 33 33 33 31 31
35 32 33 33 31 28 25 25 27 28 27 26 25 23 21 20 20 18 17 17 16 15 15 16 17 18 19 20 21 23 24 25 26 26 28 31 36 36 35 35 33 31 31
37 36 35 35 34 31 29 26 28 28 28 27 27 26 25 23 22 21 20 20 19 18 18 19 19 21 21 22 24 25 25 27 27 28 30 32 37 38 37 37 34 32 32
38 40 36 37 38 34 31 29 30 29 29 29 29 30 28 26 24 23 22 22 21 21 21 21 22 23 24 24 26 26 27 28 29 30 31 34 37 39 39 39 36 33 35
46 44 43 43 40 38 35 32 31 31 31 31 32 33 33 29 28 26 25 25 24 24 24 25 26 26 27 27 28 29 30 30 31 34 35 37 39 40 39 40 36 36 37
49 47 48 45 41 40 35 34 32 32 34 34 36 36 36 33 30 29 28 28 27 27 27 28 29 30 30 30 30 31 33 33 34 35 36 38 42 43 40 39 37 37 39
50 46 47 44 42 39 37 36 35 34 33 35 36 37 36 34 33 31 31 31 31 31 31 31 31 32 32 33 34 34 35 36 37 38 39 39 43 43 41 38 36 39 41
50 49 46 45 43 41 38 39 38 36 37 31 37 40 38 37 35 33 35 35 35 35 34 34 35 35 35 36 37 38 38 39 40 41 40 42 41 40 39 39 40 41 44
58 48 49 45 45 44 41 40 40 39 38 36 32 35 43 45 37 36 37 39 38 38 38 39 39 38 38 39 40 42 41 39 41 43 45 39 37 38 40 41 43 46 47
49 55 54 45 44 46 45 43 40 37 37 37 37 39 39 39 45 45 44 43 42 42 42 42 42 43 42 41 42 44 45 44 43 44 41 39 37 37 40 43 46 47 45
51 50 54 55 52 45 46 44 43 42 41 42 42 41 41 42 42 48 48 47 46 46 49 47 46 46 46 46 45 46 45 45 46 43 42 42 41 39 43 45 48 46 44
48 51 49 46 48 52 52 49 45 45 45 45 48 50 48 46 47 49 51 52 52 54 53 52 49 49 49 49 50 48 45 47 45 45 42 43 43 42 46 48 48 44 44
42 47 46 47 46 46 52 53 49 47 49 51 54 51 50 52 56 58 59 60 60 59 57 55 54 52 52 51 49 48 49 48 45 43 43 42 43 45 48 49 46 44 45
Wind_Direction
227 231 235 238 245 249 248 242 239 241 247 264 264 248 248 245 253 287 307 332 335 344 357 6 6 356 5 1 4 7 14 11 10 10 7 10 8 5 1 359 358 356 353
226 225 228 230 234 240 244 243 238 243 237 236 247 245 251 255 273 290 317 328 332 352 4 3 358 355 4 360 5 4 10 10 9 7 3 4 3 0 358 355 355 355 352
226 224 225 226 228 234 239 241 241 238 234 234 237 237 251 266 279 296 313 329 338 352 10 3 0 2 1 359 358 356 5 6 360 1 356 357 355 352 351 351 352 352 350
223 223 225 227 228 229 231 234 240 236 235 239 238 233 252 258 282 293 317 321 343 352 12 5 2 5 -0 359 350 351 352 354 353 352 352 351 349 347 348 349 349 351 349
222 221 222 224 226 228 229 231 239 237 234 234 232 232 246 260 279 301 310 317 341 357 10 2 4 2 358 355 344 345 344 345 347 347 350 346 345 344 345 345 346 348 347
221 221 223 225 228 229 233 237 240 241 237 233 235 235 239 257 277 296 301 311 337 0 2 358 -0 355 348 342 337 340 342 345 345 345 345 342 341 341 343 344 344 345 344
225 227 229 230 232 233 234 236 242 242 237 235 232 234 236 250 271 286 289 300 335 352 350 350 347 341 336 334 337 339 344 343 343 341 341 340 338 340 339 340 340 341 341
227 231 232 235 237 238 240 238 237 237 232 230 229 230 236 244 258 271 280 295 311 329 330 333 335 331 331 334 338 342 343 341 342 339 340 338 336 336 336 336 337 338 338
226 232 234 240 242 240 244 243 239 239 230 224 229 234 238 247 251 257 277 289 298 308 317 323 325 322 329 333 337 340 339 338 338 338 336 335 334 333 332 333 334 336 335
229 232 237 240 244 245 244 245 241 236 235 226 225 230 237 240 247 257 268 284 296 304 310 317 318 319 326 331 332 335 335 336 337 335 333 332 331 330 329 330 331 332 332
231 235 239 242 242 246 247 246 244 238 234 231 229 235 241 253 258 264 270 279 289 296 304 309 312 318 324 328 331 330 332 333 333 331 330 331 330 329 328 328 327 328 330
233 238 241 244 243 243 247 248 244 242 239 237 238 241 248 257 270 276 281 286 292 297 304 309 313 317 319 322 323 324 325 328 328 328 328 330 329 327 324 325 325 325 328
228 235 242 246 245 246 246 249 250 243 241 241 243 247 250 254 258 266 276 285 291 297 302 306 309 310 311 313 317 320 321 323 324 324 325 330 328 325 323 323 323 323 325
212 231 242 245 248 251 255 251 253 249 243 244 245 249 251 255 258 260 268 275 281 285 291 297 300 301 303 306 310 313 314 315 319 321 323 326 326 324 323 323 321 322 323
231 240 245 251 255 253 252 249 249 250 249 245 247 247 251 255 259 261 265 271 276 281 289 292 293 295 298 301 306 308 310 313 316 318 320 323 326 323 323 322 319 320 322
230 231 238 246 251 252 254 252 249 245 246 247 248 248 251 254 259 265 270 273 277 281 283 287 289 293 296 299 302 304 307 308 311 313 315 317 323 321 320 319 316 317 320
238 240 242 246 251 254 255 255 251 248 244 247 247 251 252 257 263 267 273 275 275 279 283 286 288 291 293 295 298 300 303 305 308 309 311 314 318 320 317 317 314 313 318
238 245 245 248 252 254 255 255 253 250 247 247 249 250 254 255 262 268 272 272 277 283 286 288 290 292 293 294 297 300 302 304 307 309 310 311 314 315 313 314 310 311 315
239 241 247 247 250 255 253 252 251 250 249 250 253 253 255 258 263 268 271 272 277 282 286 290 291 291 292 294 296 299 301 303 304 304 305 308 311 313 310 310 307 309 312
244 243 245 250 250 251 253 251 252 252 254 256 258 259 261 263 266 271 272 274 279 283 288 290 290 291 292 293 296 298 298 301 302 303 304 308 310 309 309 306 306 308 311
242 244 247 247 250 250 250 251 251 253 255 264 260 255 262 263 267 269 273 277 281 284 287 288 289 289 289 292 295 296 298 299 301 302 305 307 306 307 306 305 305 309 311
238 243 247 249 251 253 254 255 256 254 258 261 262 261 259 254 263 268 273 276 278 281 285 287 288 288 290 291 293 295 297 297 299 302 305 304 303 303 304 304 306 309 309
244 240 246 249 249 251 252 252 254 255 255 258 260 263 265 264 256 260 268 272 275 278 282 284 286 287 287 289 291 294 296 296 296 301 300 301 300 298 299 303 306 307 307
241 244 245 246 245 248 250 250 251 253 254 254 258 260 259 261 260 258 267 270 273 278 281 282 282 284 287 289 290 291 292 294 298 299 299 301 298 299 301 304 305 308 303
246 246 244 248 250 247 248 248 247 250 250 253 257 260 260 261 266 266 268 270 274 279 281 280 280 284 286 288 289 289 290 293 296 297 297 297 298 299 302 304 305 303 302
247 251 248 245 247 250 251 249 250 252 255 254 257 257 260 265 269 271 272 273 275 277 277 278 280 281 283 284 286 288 290 292 293 293 293 292 293 299 303 305 300 301 300
Height
5884 5886 5888 5890 5891 5892 5894 5895 5895 5896 5897 5898 5898 5899 5899 5900 5900 5900 5899 5899 5898 5898 5897 5896 5896 5896 5895 5895 5894 5893 5892 5892 5890 5889 5889 5888 5886 5885 5884 5882 5880 5879 5877
5882 5884 5886 5888 5889 5891 5893 5894 5894 5895 5896 5897 5897 5898 5899 5900 5899 5899 5899 5898 5898 5898 5897 5896 5895 5895 5895 5895 5894 5893 5892 5891 5890 5889 5889 5887 5886 5885 5883 5881 5880 5878 5876
5880 5882 5884 5886 5887 5889 5891 5893 5893 5894 5895 5896 5896 5897 5898 5899 5899 5898 5898 5898 5898 5897 5896 5896 5895 5895 5894 5894 5894 5893 5892 5891 5889 5888 5888 5887 5886 5884 5882 5881 5879 5877 5875
5877 5879 5881 5884 5886 5888 5889 5891 5892 5893 5894 5894 5895 5896 5897 5898 5898 5898 5897 5897 5896 5896 5895 5895 5895 5894 5894 5894 5894 5893 5891 5890 5889 5887 5887 5886 5885 5883 5882 5880 5878 5876 5874
5874 5877 5879 5881 5884 5886 5888 5889 5890 5892 5893 5893 5894 5894 5896 5896 5896 5896 5897 5896 5896 5895 5895 5894 5894 5894 5893 5893 5893 5892 5891 5890 5888 5887 5886 5885 5884 5883 5881 5879 5876 5874 5872
5872 5874 5877 5879 5881 5884 5885 5887 5888 5890 5892 5892 5893 5893 5894 5895 5895 5895 5896 5895 5895 5895 5894 5893 5893 5893 5893 5893 5892 5891 5890 5889 5888 5887 5885 5884 5883 5882 5880 5877 5875 5873 5871
5870 5872 5874 5877 5879 5882 5883 5885 5887 5888 5890 5890 5891 5892 5893 5894 5894 5894 5894 5894 5894 5893 5893 5892 5892 5892 5892 5892 5891 5890 5889 5888 5887 5886 5885 5883 5882 5880 5878 5876 5873 5871 5869
5865 5870 5872 5875 5877 5879 5881 5882 5884 5886 5887 5889 5890 5891 5891 5892 5892 5893 5893 5893 5892 5892 5892 5891 5891 5891 5891 5891 5890 5889 5888 5887 5886 5884 5883 5882 5880 5878 5876 5874 5872 5869 5867
5861 5867 5870 5872 5874 5877 5879 5881 5882 5884 5885 5886 5888 5889 5889 5890 5891 5891 5891 5891 5890 5890 5890 5890 5890 5890 5889 5889 5889 5887 5886 5885 5884 5883 5881 5880 5878 5876 5874 5872 5870 5867 5865
5857 5862 5867 5870 5871 5873 5876 5878 5880 5882 5882 5883 5885 5886 5887 5888 5888 5888 5889 5889 5889 5888 5888 5888 5888 5888 5887 5887 5887 5886 5885 5883 5882 5880 5879 5878 5876 5874 5871 5869 5866 5864 5862
5854 5858 5863 5866 5869 5870 5873 5876 5878 5880 5881 5881 5882 5883 5885 5886 5886 5887 5886 5886 5886 5886 5886 5886 5886 5885 5885 5885 5884 5884 5882 5881 5879 5878 5877 5874 5872 5870 5868 5865 5863 5861 5858
5849 5853 5858 5862 5865 5868 5869 5873 5874 5876 5879 5880 5880 5881 5882 5883 5884 5884 5884 5884 5884 5884 5883 5883 5883 5883 5883 5882 5882 5881 5879 5878 5877 5875 5874 5872 5869 5867 5865 5863 5860 5857 5854
5842 5848 5853 5857 5861 5865 5866 5869 5871 5873 5875 5877 5878 5879 5880 5881 5881 5882 5882 5882 5881 5881 5881 5880 5881 5881 5880 5880 5879 5877 5876 5875 5874 5872 5870 5868 5866 5864 5862 5859 5856 5853 5851
5837 5842 5848 5853 5858 5861 5862 5865 5867 5870 5872 5874 5875 5876 5877 5878 5878 5879 5879 5879 5879 5879 5878 5878 5878 5877 5877 5877 5876 5874 5873 5872 5870 5869 5866 5864 5862 5860 5858 5856 5852 5849 5846
5834 5840 5844 5849 5853 5855 5858 5860 5862 5865 5868 5870 5871 5872 5873 5874 5874 5875 5876 5876 5876 5876 5875 5875 5875 5874 5873 5873 5872 5871 5870 5868 5866 5864 5862 5859 5858 5855 5853 5850 5848 5845 5842
5829 5835 5838 5842 5846 5851 5853 5855 5857 5859 5862 5866 5867 5867 5868 5869 5870 5872 5872 5872 5873 5872 5872 5871 5870 5870 5869 5868 5867 5866 5865 5863 5861 5860 5858 5855 5853 5850 5847 5845 5842 5840 5837
5824 5831 5834 5836 5840 5845 5848 5850 5852 5854 5856 5859 5862 5863 5863 5865 5866 5867 5868 5868 5868 5868 5867 5867 5866 5865 5864 5864 5862 5861 5860 5858 5856 5855 5853 5851 5848 5845 5841 5838 5836 5833 5830
5821 5825 5829 5831 5835 5838 5842 5845 5847 5850 5851 5853 5855 5857 5858 5859 5861 5862 5862 5863 5863 5863 5862 5862 5862 5861 5859 5858 5857 5855 5855 5853 5851 5848 5845 5843 5842 5839 5836 5832 5829 5826 5824
5815 5819 5823 5826 5830 5831 5836 5839 5840 5843 5845 5847 5849 5850 5852 5854 5855 5856 5856 5857 5857 5858 5857 5857 5856 5855 5854 5852 5851 5849 5848 5847 5844 5842 5840 5838 5834 5832 5829 5826 5822 5819 5816
5809 5813 5816 5820 5823 5827 5829 5831 5834 5837 5839 5840 5842 5845 5847 5848 5849 5850 5850 5850 5850 5851 5850 5850 5849 5848 5847 5846 5844 5843 5841 5839 5837 5835 5833 5831 5827 5823 5820 5818 5815 5812 5808
5802 5807 5811 5814 5817 5819 5822 5825 5827 5830 5832 5834 5836 5838 5840 5841 5842 5843 5843 5843 5843 5843 5843 5841 5841 5841 5840 5838 5837 5836 5834 5832 5829 5827 5826 5822 5818 5815 5812 5809 5807 5804 5801
5794 5799 5803 5807 5811 5813 5815 5817 5819 5823 5825 5828 5828 5831 5832 5834 5834 5835 5836 5836 5835 5835 5835 5834 5832 5832 5831 5830 5828 5827 5827 5826 5821 5819 5816 5813 5810 5806 5804 5800 5798 5795 5792
5785 5791 5795 5799 5803 5805 5807 5810 5813 5815 5816 5819 5821 5823 5824 5823 5824 5826 5826 5827 5826 5826 5826 5825 5824 5822 5822 5821 5819 5817 5816 5816 5813 5812 5808 5805 5802 5798 5795 5792 5790 5785 5783
5777 5782 5785 5789 5795 5797 5800 5803 5805 5806 5808 5810 5811 5813 5814 5814 5815 5817 5817 5817 5817 5817 5817 5815 5814 5813 5812 5811 5810 5808 5807 5805 5802 5802 5797 5795 5792 5789 5786 5783 5778 5777 5772
5770 5773 5777 5780 5784 5788 5790 5793 5795 5797 5799 5801 5802 5803 5805 5806 5807 5807 5807 5807 5807 5806 5806 5805 5804 5803 5802 5801 5800 5799 5798 5795 5793 5790 5789 5785 5782 5779 5775 5773 5769 5765 5763
5760 5763 5768 5771 5774 5777 5779 5782 5785 5787 5790 5791 5793 5794 5796 5797 5797 5796 5796 5795 5796 5796 5795 5794 5793 5793 5792 5792 5790 5789 5787 5785 5783 5781 5779 5777 5774 5770 5766 5764 5759 5756 5754